Canton, GA

5:34 AM EDT on July 25, 2017 (GMT -0400)
Canton

Weather History for KCNI - February, 2013

Change the Weather History Date:

Wednesday, February 6, 2013

  Actual Average (KMGE) Record (KMGE)
Temperature  
Mean Temperature 50 °F -  
Max Temperature 68 °F 52 °F 73 °F (1999)
Min Temperature 33 °F 34 °F 21 °F (2015)
Degree Days  
Heating Degree Days 14    
Moisture  
Dew Point 27 °F    
Average Humidity 53    
Maximum Humidity 93    
Minimum Humidity 10    
Precipitation  
Precipitation 0.00 in - - ()
Sea Level Pressure  
Sea Level Pressure 30.12 in    
Wind  
Wind Speed 1 mph (NW)    
Max Wind Speed 8 mph    
Max Gust Speed -    
Visibility 6 miles    
Events Fog    
Averages and records for this station are not official NWS values.
T = Trace of Precipitation, MM = Missing Value Source: NWS Daily Summary

Daily Weather History Graph

Daily Weather History Graph

Search for Another Location

Airport or City:

Trip Planner

Search our weather history database for the weather conditions in past years. The results will help you decide how hot, cold, wet, or windy it might be!

Date:

Astronomy

Feb. 06, 2013 Rise Set
Actual Time 7:31 AM EST 6:12 PM EST
Civil Twilight 7:04 AM EST 6:39 PM EST
Nautical Twilight 6:35 AM EST 7:08 PM EST
Astronomical Twilight 6:05 AM EST 7:38 PM EST
Moon 4:08 AM EST (2/6) 2:35 PM EST (2/6)
Length of Visible Light 11h 34m
Length of Day
10h 41m
Waning Crescent, 17% of the Moon is Illuminated
Feb 6
Waning Crescent
Feb 10
New
Feb 17
First Quarter
Feb 25
Full
Mar 4
Last Quarter

Hourly Weather History & Observations

Time (EST) Temp. Windchill Dew Point Humidity Pressure Visibility Wind Dir Wind Speed Gust Speed Precip Events Conditions
12:15 AM 46.4 °F - 42.8 °F 87% 30.05 in 3.0 mi Calm Calm - N/A   Haze
12:35 AM 46.4 °F - 42.8 °F 87% 30.05 in 2.0 mi Calm Calm - N/A   Clear
12:55 AM 44.6 °F - 41.0 °F 87% 30.05 in 2.0 mi Calm Calm - N/A   Clear
1:15 AM 44.6 °F - 41.0 °F 87% 30.05 in 1.0 mi Calm Calm - N/A   Mist
1:35 AM 44.6 °F 43.1 °F 41.0 °F 87% 30.05 in 1.2 mi NNW 3.5 mph - N/A   Mist
1:55 AM 42.8 °F - 39.2 °F 87% 30.05 in 1.0 mi Calm Calm - N/A   Mist
2:15 AM 44.6 °F - 41.0 °F 87% 30.05 in 1.0 mi Calm Calm - N/A   Mist
2:55 AM 46.4 °F - 42.8 °F 87% 30.06 in 1.5 mi Calm Calm - N/A   Mist
3:15 AM 44.6 °F - 41.0 °F 87% 30.06 in 0.8 mi Calm Calm - N/A   Mist
3:35 AM 44.6 °F - 41.0 °F 87% 30.06 in 0.8 mi Calm Calm - N/A   Mist
3:55 AM 44.6 °F - 41.0 °F 87% 30.06 in 0.5 mi Calm Calm - N/A Fog Fog
4:15 AM 42.8 °F 41.1 °F 37.4 °F 81% 30.07 in 0.2 mi WNW 3.5 mph - N/A Fog Fog
4:35 AM 42.8 °F 41.1 °F 39.2 °F 87% 30.07 in 0.2 mi WNW 3.5 mph - N/A Fog Fog
4:55 AM 42.8 °F 41.1 °F 39.2 °F 87% 30.08 in 0.2 mi WNW 3.5 mph - N/A Fog Fog
5:15 AM 42.8 °F 41.1 °F 39.2 °F 87% 30.08 in 0.2 mi WNW 3.5 mph - N/A Fog Fog
5:35 AM 42.8 °F - 39.2 °F 87% 30.09 in 0.2 mi Calm Calm - N/A Fog Fog
5:55 AM 42.8 °F - 39.2 °F 87% 30.09 in 0.2 mi Calm Calm - N/A Fog Fog
6:15 AM 41.0 °F - 37.4 °F 87% 30.11 in 0.2 mi Calm Calm - N/A Fog Fog
6:35 AM 41.0 °F - 37.4 °F 87% 30.11 in 0.2 mi Calm Calm - N/A Fog Fog
6:55 AM 41.0 °F - 35.6 °F 81% 30.12 in 0.2 mi Calm Calm - N/A Fog Fog
7:15 AM 37.4 °F - 33.8 °F 87% 30.13 in 0.2 mi Calm Calm - N/A Fog Fog
7:35 AM 37.4 °F - 33.8 °F 87% 30.14 in 0.2 mi Calm Calm - N/A Fog Fog
7:55 AM 35.6 °F - 32.0 °F 87% 30.14 in 0.2 mi Calm Calm - N/A Fog Fog
8:15 AM 33.8 °F - 32.0 °F 93% 30.15 in 0.2 mi Calm Calm - N/A Fog Fog
8:35 AM 35.6 °F - 32.0 °F 87% 30.15 in 0.2 mi Calm Calm - N/A Fog Fog
8:55 AM 37.4 °F - 33.8 °F 87% 30.16 in 0.2 mi Calm Calm - N/A Fog Fog
9:15 AM 37.4 °F - 33.8 °F 87% 30.17 in 1.0 mi Calm Calm - N/A   Mist
9:35 AM 41.0 °F - 37.4 °F 87% 30.17 in 5.0 mi Calm Calm - N/A   Clear
9:55 AM 42.8 °F - 41.0 °F 93% 30.17 in 10.0 mi Calm Calm - N/A   Clear
10:35 AM 44.6 °F 42.2 °F 41.0 °F 87% 30.19 in 10.0 mi South 4.6 mph - N/A   Clear
10:55 AM 46.4 °F 45.2 °F 42.8 °F 87% 30.19 in 10.0 mi South 3.5 mph - N/A   Clear
11:15 AM 51.8 °F - 39.2 °F 62% 30.18 in 10.0 mi Calm Calm - N/A   Clear
11:35 AM 57.2 °F - 32.0 °F 38% 30.18 in 10.0 mi Calm Calm - N/A   Clear
11:55 AM 60.8 °F - 17.6 °F 19% 30.18 in 10.0 mi Calm Calm - N/A   Clear
12:15 PM 62.6 °F - 5.0 °F 10% 30.17 in 10.0 mi NNW 3.5 mph - N/A   Clear
12:35 PM 64.4 °F - 6.8 °F 10% 30.16 in 10.0 mi NNW 4.6 mph - N/A   Clear
12:55 PM 64.4 °F - 6.8 °F 10% 30.16 in 10.0 mi Calm Calm - N/A   Clear
1:15 PM 64.4 °F - 5.0 °F 10% 30.16 in 10.0 mi SW 6.9 mph - N/A   Clear
1:35 PM 64.4 °F - 6.8 °F 10% 30.15 in 10.0 mi West 3.5 mph - N/A   Clear
1:55 PM 68.0 °F - 8.6 °F 10% 30.14 in 10.0 mi WNW 5.8 mph - N/A   Clear
2:15 PM 66.2 °F - 12.2 °F 12% 30.14 in 10.0 mi WNW 8.1 mph - N/A   Clear
2:35 PM 68.0 °F - 12.2 °F 12% 30.13 in 10.0 mi NW 4.6 mph - N/A   Clear
2:55 PM 66.2 °F - 10.4 °F 11% 30.14 in 10.0 mi West 6.9 mph - N/A   Clear
3:15 PM 66.2 °F - 10.4 °F 11% 30.14 in 10.0 mi WSW 4.6 mph - N/A   Clear
3:35 PM 66.2 °F - 8.6 °F 11% 30.13 in 10.0 mi West 5.8 mph - N/A   Clear
3:55 PM 64.4 °F - 5.0 °F 10% 30.12 in 10.0 mi NW 5.8 mph - N/A   Clear
4:15 PM 64.4 °F - 5.0 °F 10% 30.12 in 10.0 mi NW 5.8 mph - N/A   Clear
4:35 PM 64.4 °F - 6.8 °F 10% 30.13 in 10.0 mi WNW 6.9 mph - N/A   Clear
4:55 PM 60.8 °F - 8.6 °F 13% 30.13 in 10.0 mi NW 4.6 mph - N/A   Clear
5:15 PM 60.8 °F - 10.4 °F 14% 30.12 in 10.0 mi NW 3.5 mph - N/A   Clear
5:35 PM 60.8 °F - 12.2 °F 15% 30.12 in 10.0 mi Calm Calm - N/A   Clear
5:55 PM 60.8 °F - 12.2 °F 15% 30.12 in 10.0 mi Calm Calm - N/A   Clear
6:15 PM 55.4 °F - 19.4 °F 25% 30.13 in 10.0 mi WNW 3.5 mph - N/A   Clear
6:35 PM 55.4 °F - 19.4 °F 25% 30.12 in 10.0 mi Calm Calm - N/A   Clear
6:55 PM 55.4 °F - 19.4 °F 25% 30.12 in 10.0 mi Calm Calm - N/A   Clear
7:15 PM 53.6 °F - 21.2 °F 28% 30.12 in 10.0 mi Calm Calm - N/A   Clear
7:35 PM 53.6 °F - 21.2 °F 28% 30.12 in 10.0 mi Calm Calm - N/A   Clear
7:55 PM 51.8 °F - 24.8 °F 35% 30.15 in 10.0 mi SSW 5.8 mph - N/A   Clear
8:15 PM 53.6 °F - 17.6 °F 24% 30.15 in 10.0 mi Calm Calm - N/A   Clear
8:35 PM 51.8 °F - 21.2 °F 30% 30.14 in 10.0 mi Calm Calm - N/A   Clear
8:55 PM 50.0 °F - 23.0 °F 35% 30.14 in 10.0 mi Calm Calm - N/A   Clear
9:15 PM 48.2 °F - 26.6 °F 43% 30.15 in 10.0 mi North 3.5 mph - N/A   Clear
9:35 PM 48.2 °F - 26.6 °F 43% 30.15 in 10.0 mi Calm Calm - N/A   Clear
9:55 PM 46.4 °F - 26.6 °F 46% 30.15 in 10.0 mi Calm Calm - N/A   Clear
10:15 PM 46.4 °F - 26.6 °F 46% 30.15 in 10.0 mi Calm Calm - N/A   Clear
10:35 PM 42.8 °F 41.1 °F 28.4 °F 57% 30.14 in 10.0 mi NNE 3.5 mph - N/A   Clear
10:55 PM 42.8 °F 41.1 °F 28.4 °F 57% 30.13 in 10.0 mi NNE 3.5 mph - N/A   Clear
11:15 PM 44.6 °F 43.1 °F 26.6 °F 49% 30.13 in 10.0 mi North 3.5 mph - N/A   Clear
11:35 PM 41.0 °F 38.0 °F 28.4 °F 61% 30.13 in 10.0 mi North 4.6 mph - N/A   Clear
11:55 PM 42.8 °F 40.1 °F 26.6 °F 53% 30.13 in 10.0 mi NNE 4.6 mph - N/A   Clear